WZZ21 LROP-LRSB

Flight info

Callsign WZZ21
Flight time N/A
Altitude 18000
Route BUKEL DCT PELUR DCT EDETA
Aircraft A320/M-SDE3FGHIRWY/LB1

Departure

Time 2026-05-01 13:07
Airport Bucharest Henri Coandă International Airport (LROP)

Arrival

Time N/A
Airport Sibiu International Airport (LRSB)
Time Latitude Longitude Altitude Speed Heading
2026-05-01 12:40 44.56895 26.08476 321 ft 13 kts 256°
2026-05-01 12:40 44.56874 26.08376 320 ft 14 kts 245°
2026-05-01 13:01 44.56802 26.08199 321 ft 16 kts 239°
2026-05-01 13:02 44.56762 26.08045 320 ft 18 kts 257°
2026-05-01 13:07 44.57613 26.19931 3305 ft 165 kts 70°
2026-05-01 13:07 44.57926 26.21242 4388 ft 127 kts 66°
2026-05-01 13:07 44.58251 26.22380 4846 ft 136 kts 63°
2026-05-01 13:08 44.58711 26.23695 5340 ft 147 kts 59°
2026-05-01 13:08 44.59194 26.24907 6120 ft 155 kts 58°
2026-05-01 13:08 44.59526 26.26166 6153 ft 198 kts 78°
2026-05-01 13:09 44.59555 26.26434 6194 ft 202 kts 80°
2026-05-01 13:09 44.59649 26.28393 6357 ft 200 kts 86°
2026-05-01 13:09 44.59673 26.30448 6570 ft 222 kts 86°
2026-05-01 13:09 44.59717 26.32699 6909 ft 241 kts 85°
2026-05-01 13:10 44.59996 26.35051 7520 ft 246 kts 66°
2026-05-01 13:10 44.60951 26.37014 8283 ft 245 kts 39°
2026-05-01 13:10 44.62431 26.38168 9048 ft 246 kts 14°
2026-05-01 13:10 44.64124 26.38319 9807 ft 247 kts 351°
2026-05-01 13:11 44.65732 26.37449 10516 ft 252 kts 327°
2026-05-01 13:11 44.67033 26.35768 11148 ft 257 kts 316°
2026-05-01 13:11 44.68281 26.33960 11789 ft 259 kts 319°
2026-05-01 13:11 44.69736 26.32474 12407 ft 260 kts 334°
2026-05-01 13:12 44.71427 26.31593 13034 ft 261 kts 349°
2026-05-01 13:12 44.73234 26.31271 13638 ft 264 kts 355°
2026-05-01 13:12 44.75110 26.31012 13901 ft 285 kts 355°
2026-05-01 13:12 44.77187 26.30722 14056 ft 308 kts 355°
2026-05-01 13:13 44.79355 26.30225 14189 ft 330 kts 346°
2026-05-01 13:13 44.81554 26.28949 14547 ft 344 kts 332°
2026-05-01 13:13 44.83511 26.26951 15140 ft 352 kts 319°
2026-05-01 13:13 44.85119 26.24321 15777 ft 358 kts 306°
2026-05-01 13:14 44.86433 26.21381 16394 ft 361 kts 304°
2026-05-01 13:14 44.87765 26.18365 17035 ft 363 kts 304°
2026-05-01 13:14 44.89102 26.15327 17658 ft 366 kts 304°
2026-05-01 13:14 44.90447 26.12270 18190 ft 369 kts 304°
2026-05-01 13:15 44.91800 26.09191 18292 ft 373 kts 304°
2026-05-01 13:15 44.93184 26.06039 18300 ft 381 kts 304°
2026-05-01 13:15 44.94582 26.02854 18302 ft 383 kts 304°
2026-05-01 13:15 44.95982 25.99654 18295 ft 383 kts 304°
2026-05-01 13:16 44.97381 25.96442 18297 ft 383 kts 304°
2026-05-01 13:16 44.98777 25.93242 18290 ft 383 kts 304°
2026-05-01 13:16 45.00181 25.90031 18293 ft 384 kts 304°
2026-05-01 13:17 45.04380 25.80403 18295 ft 384 kts 304°
2026-05-01 13:17 45.05778 25.77192 18290 ft 384 kts 304°
2026-05-01 13:18 45.08371 25.72139 18291 ft 381 kts 316°
2026-05-01 13:18 45.10344 25.69667 18291 ft 379 kts 323°
2026-05-01 13:18 45.12411 25.67342 18297 ft 379 kts 323°
2026-05-01 13:18 45.14470 25.65014 18297 ft 379 kts 323°
2026-05-01 13:19 45.16527 25.62677 18296 ft 379 kts 323°
2026-05-01 13:19 45.18582 25.60336 18301 ft 379 kts 323°
2026-05-01 13:19 45.22698 25.55650 18297 ft 379 kts 323°
2026-05-01 13:20 45.24753 25.53304 18304 ft 379 kts 323°
2026-05-01 13:20 45.26807 25.50954 18303 ft 379 kts 323°
2026-05-01 13:20 45.28835 25.48635 18302 ft 379 kts 323°
2026-05-01 13:21 45.32949 25.43933 18303 ft 379 kts 323°
2026-05-01 13:21 45.35001 25.41586 18306 ft 379 kts 323°
2026-05-01 13:21 45.36318 25.40079 18301 ft 379 kts 323°
2026-05-01 13:22 45.36703 25.39639 18304 ft 378 kts 323°
2026-05-01 13:22 45.38722 25.37327 18272 ft 373 kts 323°
2026-05-01 13:22 45.40758 25.34994 18291 ft 377 kts 323°
2026-05-01 13:22 45.42802 25.32645 18284 ft 378 kts 323°
2026-05-01 13:23 45.44844 25.30293 18284 ft 378 kts 323°
2026-05-01 13:23 45.46891 25.27939 18287 ft 378 kts 323°
2026-05-01 13:23 45.48935 25.25588 18286 ft 378 kts 323°
2026-05-01 13:23 45.50977 25.23235 18286 ft 378 kts 323°
2026-05-01 13:24 45.53017 25.20882 18256 ft 372 kts 323°
2026-05-01 13:24 45.55009 25.18577 17815 ft 366 kts 323°
2026-05-01 13:24 45.55916 25.17527 17560 ft 365 kts 323°
2026-05-01 13:25 45.56560 25.16777 17377 ft 364 kts 323°
2026-05-01 13:25 45.58518 25.14496 16826 ft 362 kts 323°
2026-05-01 13:25 45.60460 25.12236 16239 ft 360 kts 323°
2026-05-01 13:25 45.62404 25.09983 15737 ft 357 kts 323°
2026-05-01 13:26 45.64327 25.07759 15197 ft 354 kts 323°
2026-05-01 13:26 45.66233 25.05552 14720 ft 350 kts 323°
2026-05-01 13:26 45.68108 25.03374 14255 ft 347 kts 323°
2026-05-01 13:26 45.69973 25.01203 13761 ft 344 kts 323°
2026-05-01 13:27 45.71814 24.99053 13291 ft 339 kts 323°
2026-05-01 13:27 45.73630 24.96934 12831 ft 335 kts 323°
2026-05-01 13:27 45.76422 24.91695 11902 ft 336 kts 293°
2026-05-01 13:28 45.77084 24.85096 10942 ft 336 kts 273°
2026-05-01 13:28 45.77151 24.81765 10596 ft 331 kts 273°
2026-05-01 13:29 45.77290 24.75424 10389 ft 307 kts 274°
2026-05-01 13:29 45.77428 24.69439 9533 ft 301 kts 274°
2026-05-01 13:30 45.77677 24.57654 8117 ft 277 kts 274°
2026-05-01 13:31 45.77789 24.52154 7438 ft 277 kts 274°
2026-05-01 13:31 45.77954 24.43800 6198 ft 285 kts 273°
2026-05-01 13:32 45.78058 24.38127 5384 ft 287 kts 273°
2026-05-01 13:33 45.78221 24.29502 4192 ft 290 kts 273°
2026-05-01 13:33 45.78327 24.23691 3387 ft 293 kts 272°
2026-05-01 13:34 45.78429 24.17918 2571 ft 287 kts 273°
2026-05-01 13:34 45.78526 24.12302 1791 ft 276 kts 273°
2026-05-01 13:35 45.78610 24.07623 1583 ft 170 kts 272°